Simultaneous Nadir Overpasses (SNOs) Predictions

Prediction of SNOs between LANDSAT-8 and NOAA-19 Satellite Orbit:

Table of predicted SNOs for the next 14.0 days since TLE Epoch: 6/22/2019
Index Date (LANDSAT-8) Time (LANDSAT-8) Lat,Lon (LANDSAT-8) SZA (LANDSAT-8 ) Date (NOAA-19) Time (NOAA-19) Lat,Lon (NOAA-19) SZA (NOAA-19 ) Distance(km) Time Diff (sec)
1 06/23/2019 10:00:45 -78.85,-130.34 123.95 06/23/2019 09:59:56 -78.85,-130.28 123.95 1.43 49
2 06/23/2019 10:50:11 78.84, 37.29 56.05 06/23/2019 10:50:51 78.83, 37.13 56.04 3.62 40
3 06/25/2019 15:34:29 78.85, -33.74 56.10 06/25/2019 15:33:17 78.88, -33.73 56.10 3.15 72
4 06/25/2019 16:23:57 -78.82, 133.71 123.95 06/25/2019 16:24:21 -78.83, 133.85 123.92 3.34 24
5 06/27/2019 21:57:40 78.86,-129.48 56.18 06/27/2019 21:57:42 78.86,-129.64 56.17 3.50 2
6 06/30/2019 03:31:25 -78.88, -32.81 123.70 06/30/2019 03:31:12 -78.86, -32.90 123.72 2.79 13
7 06/30/2019 04:20:52 78.83, 134.54 56.24 06/30/2019 04:22:05 78.78, 134.95 56.25 10.19 73
8 07/02/2019 09:05:09 78.87, 63.73 56.44 07/02/2019 09:04:32 78.86, 63.82 56.43 2.34 37
9 07/02/2019 09:54:37 -78.85,-128.79 123.60 07/02/2019 09:55:37 -78.85,-128.84 123.58 1.09 60
10 07/04/2019 14:38:54 -78.89, 160.39 123.37 07/04/2019 14:38:03 -78.90, 160.25 123.38 3.34 51




NCC Satellite Simultaneous Nadir Overpasses (SNOs) Prediction Service
